Погода в Рочеве

Россия / Республика Коми     65°28′22″N   51°33′34″E
темп.,
°C
ветер,
м/с
пор.,
м/с
влажн.,
%
обл.,
%
осадки,
мм/ч
давл.,
гПа
погр.,
м
19 апреля, пн
пн1900:00−6ю138454 0.0 103985
03:00−5ююз258299 0.0 1038158
06:00−4зюз257089 0.0 1037230
09:00+1з355238 0.0 1035855
12:00+4з46425 0.0 10341140
15:00+5з47465 0.0 10321222
18:00+3з3861100 0.0 1031311
21:000зюз31177100 0.0 1030297
20 апреля, вт
вт2000:000з3137591 0.0 1029375
03:000з4137781 0.0 1029444
06:00+1з4137256 0.0 1029595
09:00+5зсз496511 0.0 1029772
12:00+7зсз46639 0.0 1029962
15:00+8зсз35639 0.0 10291008
18:00+6з11815 0.0 102931
21:00+2зюз11898 0.0 102910
21 апреля, ср
ср2100:00+1ююз22925 0.0 102916
03:000ююз22917 0.0 102921
06:00+3ююз147561 0.0 1029127
09:00+8ю245495 0.0 1028540
12:00+11ю354361 0.0 10251219
15:00+12ю464298 0.0 10241394
18:00+9ююв3854100 0.0 1022314
21:00+6юв31170100 0.0 1021318
22 апреля, чт
чт2200:00+6ююв41271100 0.0 1018593
03:00+6ююв41270100 0.0 1016687
06:00+6ююв51269100 0.0 10151135
09:00+4ю51295100 0.0 1014920
12:00+4ю51292100 0.0 1014987
15:00+6ю51180100 0.1 10141273
18:00+6ю51177100 0.1 10141087
21:00+5ю5127727 0.1 1014716
23 апреля, пт
пт2300:00+6ю51174100 0.0 1013945
03:00+5ю51281100 0.1 10121104
06:00+4ююз6129299 1.0 10121146
09:00+4юз4107785 1.1 10151207
12:00+7зюз5961100 0.1 10171624
15:00+7зюз496298 0.2 10191446
18:00+7зюз256964 0.0 1020452
21:00+4зюз118220 0.0 102110